Home > Weather > Palm Springs > Past weeks

Flag for U.S.A. Weather for the Past 2 Weeks in Palm Springs, California, U.S.A.

Now
62 °F

Scattered clouds.


Feels Like: 62 °F
Forecast: 59 / 85 °F
Wind: 6 mph from Northwest

Location: Palm Springs Regional Airport

Current Time: Feb 10, 2016 at 8:45:02 AM

Latest Report: Feb 10, 2016 at 7:53 AM


Visibility: 10 mi

Pressure: 30.21 "Hg

Humidity: 27%

Dew point: 28 °F

Location of Palm SpringsLocation

Historic Weather in Palm Springs — Graph

°F

Palm Springs Temperature Yesterday

Maximum temperature yesterday: 88 °F (at 3:53 PM)
Minimum temperature yesterday: 63 °F (at 11:53 PM)
Average temperature yesterday: 74 °F

High & Low Weather Summary for the Past Weeks

 TemperatureHumidityPressure
High88 °F (Feb 9, 3:53 PM)100% (Jan 31, 4:53 PM)30.44 "Hg (Jan 31, 4:53 PM)
Low39 °F (Feb 2, 6:53 AM)9% (Jan 26, 2:53 PM)29.55 "Hg (Jan 31, 5:53 PM)
Average61 °F28%30.16 "Hg
* Reported Jan 26 6:53 AM — Feb 10 6:53 AM, Palm Springs, Weather by CustomWeather, © 2016

Note: Actual official high and low records may vary slightly from our data, if they occured in-between our weather recording intervals... More about our weather records

Advertising

Palm Springs Weather History for the Previous 24 Hours

 ConditionsComfort  
Time TempWeatherWind HumidityBarometerVisibility
6:53 AM
Wed, Feb 10
59 °FScattered clouds.7 mph26%30.19 "Hg10 mi
5:53 AM56 °FClear.7 mph30%30.18 "Hg10 mi
4:53 AM58 °FClear.7 mph30%30.16 "Hg10 mi
3:53 AM58 °FClear.7 mph30%30.15 "Hg10 mi
2:53 AM61 °FClear.7 mph25%30.14 "Hg10 mi
1:53 AM60 °FClear.8 mph28%30.16 "Hg10 mi
12:53 AM63 °FClear.6 mph25%30.15 "Hg10 mi
11:53 PM
Tue, Feb 9
63 °FClear.7 mph27%30.16 "Hg10 mi
10:53 PM65 °FClear.7 mph25%30.16 "Hg10 mi
9:53 PM67 °FClear.7 mph23%30.15 "Hg10 mi
8:53 PM67 °FClear.6 mph24%30.14 "Hg10 mi
7:53 PM72 °FClear.6 mph19%30.14 "Hg10 mi
6:53 PM76 °FClear.8 mph16%30.14 "Hg10 mi
5:53 PM80 °FClear.3 mph14%30.13 "Hg10 mi
4:53 PM84 °FSunny.5 mph11%30.11 "Hg10 mi
3:53 PM88 °FSunny.No wind9%30.11 "Hg10 mi
2:53 PM87 °FSunny.3 mph9%30.10 "Hg10 mi
1:53 PM87 °FSunny.3 mph9%30.12 "Hg10 mi
12:53 PM86 °FSunny.No wind10%30.14 "Hg10 mi
11:53 AM85 °FSunny.No wind11%30.18 "Hg10 mi
10:53 AM83 °FSunny.No wind12%30.22 "Hg10 mi
9:53 AM80 °FSunny.3 mph14%30.23 "Hg10 mi
8:53 AM75 °FSunny.3 mph19%30.24 "Hg10 mi
Weather by CustomWeather, © 2016

See weather overviewHow to use our weather pages